Location: ???????
(55.7027°N, 37.3832°E)
Time: 08:44:08
(UTC+00:00)

Helios 1A - Pass Details

Date: 14 April 2026
Orbit: 541 x 559 km, 98.2° (Epoch: 9 May)

Event Time Altitude Azimuth Distance (km) Brightness Sun altitude
Rises 19:39:14 0° 18° (NNE) 2,757 7.0 -20.7°
Reaches altitude 10° 19:41:26 10° 24° (NNE) 1,854 6.0 -20.8°
Enters shadow 19:45:10 51° 91° (E) 709 3.1 -21.1°
